Time,TemperatureF,DewpointF,PressureIn,WindDirection,WindDirectionDegrees,WindSpeedMPH,WindSpeedGustMPH,Humidity,HourlyPrecipIn,Conditions,Clouds,dailyrainin,SolarRadiationWatts/m^2,SoftwareType,DateUTC
2013-08-26 00:04:00,61.3,55.8,30.21,SE,140,0.0,0.0,82,0.00,,,0.00,0,Wunderground v.1.15,2013-08-26 04:04:00,
2013-08-26 00:09:00,61.2,55.7,30.20,SE,140,0.0,0.0,82,0.00,,,0.00,0,Wunderground v.1.15,2013-08-26 04:09:00,
2013-08-26 00:14:00,61.2,56.0,30.20,SE,140,0.0,0.0,83,0.00,,,0.00,0,Wunderground v.1.15,2013-08-26 04:14:00,
2013-08-26 00:19:00,61.1,55.9,30.20,SE,140,0.0,1.0,83,0.00,,,0.00,0,Wunderground v.1.15,2013-08-26 04:19:00,
2013-08-26 00:24:00,61.1,56.2,30.20,SE,140,0.0,0.0,84,0.00,,,0.00,0,Wunderground v.1.15,2013-08-26 04:24:00,
2013-08-26 00:29:00,61.0,55.8,30.20,SE,140,0.0,0.0,83,0.00,,,0.00,0,Wunderground v.1.15,2013-08-26 04:29:00,
2013-08-26 00:34:00,61.0,55.8,30.20,SE,140,0.0,0.0,83,0.00,,,0.00,0,Wunderground v.1.15,2013-08-26 04:34:00,
2013-08-26 00:44:00,60.9,55.7,30.21,SE,140,0.0,0.0,83,0.00,,,0.00,0,Wunderground v.1.15,2013-08-26 04:44:00,
2013-08-26 00:54:00,60.9,55.7,30.20,SE,140,0.0,0.0,83,0.00,,,0.00,0,Wunderground v.1.15,2013-08-26 04:54:00,
2013-08-26 00:59:00,60.9,55.7,30.20,SE,140,0.0,0.0,83,0.00,,,0.00,0,Wunderground v.1.15,2013-08-26 04:59:00,
2013-08-26 01:04:00,60.8,55.6,30.20,SE,140,0.0,0.0,83,0.00,,,0.00,0,Wunderground v.1.15,2013-08-26 05:04:00,
2013-08-26 01:14:00,60.7,55.8,30.20,SE,140,0.0,0.0,84,0.00,,,0.00,0,Wunderground v.1.15,2013-08-26 05:14:00,
2013-08-26 01:19:00,60.7,55.8,30.20,SE,140,0.0,0.0,84,0.00,,,0.00,0,Wunderground v.1.15,2013-08-26 05:19:00,
2013-08-26 01:29:00,60.6,56.1,30.20,SE,141,0.0,1.0,85,0.00,,,0.00,0,Wunderground v.1.15,2013-08-26 05:29:00,
2013-08-26 01:34:00,60.6,56.1,30.20,SE,143,0.0,0.0,85,0.00,,,0.00,0,Wunderground v.1.15,2013-08-26 05:34:00,
2013-08-26 01:39:00,60.5,56.3,30.20,SE,143,0.0,0.0,86,0.00,,,0.00,0,Wunderground v.1.15,2013-08-26 05:39:00,
2013-08-26 01:44:00,60.5,56.3,30.20,SE,143,0.0,0.0,86,0.00,,,0.00,0,Wunderground v.1.15,2013-08-26 05:44:00,
2013-08-26 01:49:00,60.4,56.5,30.19,SE,143,0.0,1.0,87,0.00,,,0.00,0,Wunderground v.1.15,2013-08-26 05:49:00,
2013-08-26 01:54:00,60.5,56.3,30.19,ENE,63,0.0,3.0,86,0.00,,,0.00,0,Wunderground v.1.15,2013-08-26 05:54:00,
2013-08-26 02:04:00,60.5,56.3,30.19,ESE,116,1.0,1.0,86,0.00,,,0.00,0,Wunderground v.1.15,2013-08-26 06:04:00,
2013-08-26 02:09:00,60.6,56.4,30.18,East,92,0.0,1.0,86,0.00,,,0.00,0,Wunderground v.1.15,2013-08-26 06:09:00,
2013-08-26 02:14:00,60.7,56.5,30.18,SSE,155,1.0,2.0,86,0.00,,,0.00,0,Wunderground v.1.15,2013-08-26 06:14:00,
2013-08-26 02:19:00,60.8,56.6,30.18,SSE,153,1.0,2.0,86,0.00,,,0.00,0,Wunderground v.1.15,2013-08-26 06:19:00,
2013-08-26 02:24:00,60.9,56.7,30.18,East,99,1.0,1.0,86,0.00,,,0.00,0,Wunderground v.1.15,2013-08-26 06:24:00,
2013-08-26 02:34:00,61.2,56.7,30.17,SE,146,1.0,1.0,85,0.00,,,0.00,0,Wunderground v.1.15,2013-08-26 06:34:00,
2013-08-26 02:39:00,61.3,57.1,30.17,SE,135,1.0,1.0,86,0.00,,,0.00,0,Wunderground v.1.15,2013-08-26 06:39:00,
2013-08-26 02:49:00,61.5,56.9,30.16,East,96,1.0,2.0,85,0.00,,,0.00,0,Wunderground v.1.15,2013-08-26 06:49:00,
2013-08-26 02:54:00,61.7,57.5,30.16,SE,126,1.0,1.0,86,0.00,,,0.00,0,Wunderground v.1.15,2013-08-26 06:54:00,
2013-08-26 02:59:00,61.7,57.5,30.16,SE,126,1.0,1.0,86,0.00,,,0.00,0,Wunderground v.1.15,2013-08-26 06:59:00,
2013-08-26 03:04:00,61.8,57.2,30.16,SE,132,1.0,1.0,85,0.00,,,0.00,0,Wunderground v.1.15,2013-08-26 07:04:00,
2013-08-26 03:14:00,61.9,57.7,30.16,SE,132,0.0,0.0,86,0.00,,,0.00,0,Wunderground v.1.15,2013-08-26 07:14:00,
2013-08-26 03:24:00,61.8,57.6,30.16,ESE,116,0.0,0.0,86,0.00,,,0.00,0,Wunderground v.1.15,2013-08-26 07:24:00,
2013-08-26 03:29:00,61.8,57.9,30.15,ESE,116,0.0,1.0,87,0.00,,,0.00,0,Wunderground v.1.15,2013-08-26 07:29:00,
2013-08-26 03:39:00,61.7,57.8,30.15,East,99,0.0,0.0,87,0.00,,,0.00,0,Wunderground v.1.15,2013-08-26 07:39:00,
2013-08-26 03:44:00,61.6,57.4,30.15,East,101,1.0,1.0,86,0.00,,,0.00,0,Wunderground v.1.15,2013-08-26 07:44:00,
2013-08-26 03:49:00,61.6,57.4,30.15,South,175,1.0,1.0,86,0.00,,,0.00,0,Wunderground v.1.15,2013-08-26 07:49:00,
2013-08-26 03:59:00,61.6,57.0,30.15,NNE,24,1.0,1.0,85,0.00,,,0.00,0,Wunderground v.1.15,2013-08-26 07:59:00,
2013-08-26 04:04:00,61.7,57.5,30.15,East,97,0.0,2.0,86,0.00,,,0.00,0,Wunderground v.1.15,2013-08-26 08:04:00,
2013-08-26 04:14:00,61.6,57.7,30.15,SSE,155,1.0,1.0,87,0.00,,,0.00,0,Wunderground v.1.15,2013-08-26 08:14:00,
2013-08-26 04:19:00,61.6,58.0,30.15,SSE,155,0.0,1.0,88,0.00,,,0.00,0,Wunderground v.1.15,2013-08-26 08:19:00,
2013-08-26 04:24:00,61.6,58.0,30.15,SSE,155,0.0,0.0,88,0.00,,,0.00,0,Wunderground v.1.15,2013-08-26 08:24:00,
2013-08-26 04:29:00,61.5,57.9,30.15,SE,140,0.0,0.0,88,0.00,,,0.00,0,Wunderground v.1.15,2013-08-26 08:29:00,
2013-08-26 04:39:00,61.2,57.9,30.15,South,178,0.0,0.0,89,0.00,,,0.00,0,Wunderground v.1.15,2013-08-26 08:39:00,
2013-08-26 04:49:00,61.0,58.0,30.15,South,178,0.0,0.0,90,0.00,,,0.00,0,Wunderground v.1.15,2013-08-26 08:49:00,
2013-08-26 04:54:00,60.9,57.9,30.15,South,178,0.0,0.0,90,0.00,,,0.00,0,Wunderground v.1.15,2013-08-26 08:54:00,
2013-08-26 04:59:00,60.8,58.2,30.15,South,173,0.0,0.0,91,0.00,,,0.00,0,Wunderground v.1.15,2013-08-26 08:59:00,
2013-08-26 05:09:00,60.5,57.9,30.15,South,173,0.0,0.0,91,0.00,,,0.00,0,Wunderground v.1.15,2013-08-26 09:09:00,
2013-08-26 05:19:00,60.4,58.1,30.14,South,173,0.0,0.0,92,0.00,,,0.00,0,Wunderground v.1.15,2013-08-26 09:19:00,
2013-08-26 05:24:00,60.3,58.0,30.14,South,173,0.0,0.0,92,0.00,,,0.00,0,Wunderground v.1.15,2013-08-26 09:24:00,
2013-08-26 05:34:00,60.2,57.9,30.14,East,80,0.0,0.0,92,0.00,,,0.00,0,Wunderground v.1.15,2013-08-26 09:34:00,
2013-08-26 05:44:00,60.1,58.1,30.14,East,80,0.0,0.0,93,0.00,,,0.00,0,Wunderground v.1.15,2013-08-26 09:44:00,
2013-08-26 05:49:00,60.0,58.0,30.14,ENE,60,0.0,1.0,93,0.00,,,0.00,0,Wunderground v.1.15,2013-08-26 09:49:00,
2013-08-26 05:59:00,60.0,58.0,30.14,ENE,60,0.0,0.0,93,0.00,,,0.00,0,Wunderground v.1.15,2013-08-26 09:59:00,
2013-08-26 06:04:00,60.0,58.0,30.14,ENE,60,0.0,0.0,93,0.00,,,0.00,0,Wunderground v.1.15,2013-08-26 10:04:00,
2013-08-26 06:14:00,59.9,57.9,30.14,ENE,60,0.0,0.0,93,0.00,,,0.00,0,Wunderground v.1.15,2013-08-26 10:14:00,
2013-08-26 06:24:00,59.9,57.9,30.14,ENE,60,0.0,0.0,93,0.00,,,0.01,0,Wunderground v.1.15,2013-08-26 10:24:00,
2013-08-26 06:34:00,59.8,57.8,30.14,NE,55,0.0,2.0,93,0.00,,,0.01,11,Wunderground v.1.15,2013-08-26 10:34:00,
2013-08-26 06:44:00,59.8,57.8,30.13,NE,42,0.0,0.0,93,0.00,,,0.01,23,Wunderground v.1.15,2013-08-26 10:44:00,
2013-08-26 06:54:00,59.9,58.2,30.13,NE,42,0.0,0.0,94,0.00,,,0.01,14,Wunderground v.1.15,2013-08-26 10:54:00,
2013-08-26 06:59:00,59.9,58.2,30.13,NE,42,0.0,0.0,94,0.00,,,0.01,14,Wunderground v.1.15,2013-08-26 10:59:00,
2013-08-26 07:04:00,59.9,58.2,30.13,NE,42,0.0,0.0,94,0.00,,,0.01,9,Wunderground v.1.15,2013-08-26 11:04:00,
2013-08-26 07:14:00,60.0,58.3,30.13,NE,42,0.0,0.0,94,0.00,,,0.01,11,Wunderground v.1.15,2013-08-26 11:14:00,
2013-08-26 07:19:00,60.0,58.3,30.13,NE,42,0.0,0.0,94,0.00,,,0.01,14,Wunderground v.1.15,2013-08-26 11:19:00,
2013-08-26 07:24:00,60.0,58.3,30.13,NE,42,0.0,0.0,94,0.00,,,0.01,18,Wunderground v.1.15,2013-08-26 11:24:00,
2013-08-26 07:29:00,60.1,58.4,30.13,NE,42,0.0,0.0,94,0.00,,,0.01,18,Wunderground v.1.15,2013-08-26 11:29:00,
2013-08-26 07:39:00,60.1,58.7,30.13,NE,42,0.0,0.0,95,0.00,,,0.01,21,Wunderground v.1.15,2013-08-26 11:39:00,
2013-08-26 07:49:00,60.2,58.8,30.13,ESE,106,0.0,0.0,95,0.00,,,0.01,26,Wunderground v.1.15,2013-08-26 11:49:00,
2013-08-26 07:59:00,60.3,58.9,30.13,ESE,106,0.0,0.0,95,0.00,,,0.01,23,Wunderground v.1.15,2013-08-26 11:59:00,
2013-08-26 08:09:00,60.5,59.1,30.12,ESE,106,0.0,1.0,95,0.00,,,0.01,26,Wunderground v.1.15,2013-08-26 12:09:00,
2013-08-26 08:19:00,60.6,59.2,30.10,ESE,106,0.0,1.0,95,0.00,,,0.01,18,Wunderground v.1.15,2013-08-26 12:19:00,
2013-08-26 08:24:00,60.7,59.3,30.10,ESE,106,0.0,0.0,95,0.00,,,0.01,19,Wunderground v.1.15,2013-08-26 12:24:00,
2013-08-26 08:29:00,60.7,59.3,30.10,ESE,106,0.0,0.0,95,0.00,,,0.01,19,Wunderground v.1.15,2013-08-26 12:29:00,
2013-08-26 08:39:00,60.8,59.4,30.10,ESE,106,0.0,0.0,95,0.00,,,0.01,33,Wunderground v.1.15,2013-08-26 12:39:00,
2013-08-26 08:49:00,60.8,59.1,30.10,ESE,105,1.0,2.0,94,0.00,,,0.01,62,Wunderground v.1.15,2013-08-26 12:49:00,
2013-08-26 08:54:00,60.9,59.2,30.10,NNW,327,1.0,1.0,94,0.00,,,0.01,81,Wunderground v.1.15,2013-08-26 12:54:00,
2013-08-26 08:59:00,61.1,59.4,30.09,ESE,102,1.0,1.0,94,0.00,,,0.01,111,Wunderground v.1.15,2013-08-26 12:59:00,
2013-08-26 09:04:00,61.3,59.6,30.09,East,101,0.0,0.0,94,0.00,,,0.01,163,Wunderground v.1.15,2013-08-26 13:04:00,
2013-08-26 09:14:00,62.0,60.0,30.09,ESE,111,1.0,1.0,93,0.00,,,0.01,178,Wunderground v.1.15,2013-08-26 13:14:00,
2013-08-26 09:19:00,62.4,60.0,30.09,ESE,115,1.0,1.0,92,0.00,,,0.01,172,Wunderground v.1.15,2013-08-26 13:19:00,
2013-08-26 09:24:00,62.8,60.1,30.09,ESE,115,1.0,1.0,91,0.00,,,0.01,178,Wunderground v.1.15,2013-08-26 13:24:00,
2013-08-26 09:29:00,63.2,60.2,30.09,SE,140,1.0,2.0,90,0.00,,,0.01,165,Wunderground v.1.15,2013-08-26 13:29:00,
2013-08-26 09:39:00,63.8,60.2,30.09,NW,317,1.0,2.0,88,0.00,,,0.01,139,Wunderground v.1.15,2013-08-26 13:39:00,
2013-08-26 09:49:00,64.7,60.4,30.09,ENE,78,1.0,2.0,86,0.00,,,0.01,179,Wunderground v.1.15,2013-08-26 13:49:00,
2013-08-26 09:54:00,64.9,60.9,30.09,SSE,153,1.0,1.0,87,0.00,,,0.01,84,Wunderground v.1.15,2013-08-26 13:54:00,
2013-08-26 09:59:00,65.0,60.4,30.09,ESE,107,1.0,1.0,85,0.00,,,0.01,79,Wunderground v.1.15,2013-08-26 13:59:00,
2013-08-26 10:09:00,65.0,60.7,30.09,South,182,1.0,1.0,86,0.00,,,0.01,120,Wunderground v.1.15,2013-08-26 14:09:00,
2013-08-26 10:14:00,65.0,61.0,30.09,ESE,105,1.0,2.0,87,0.00,,,0.01,156,Wunderground v.1.15,2013-08-26 14:14:00,
2013-08-26 10:19:00,65.0,61.0,30.09,East,92,1.0,2.0,87,0.00,,,0.01,199,Wunderground v.1.15,2013-08-26 14:19:00,
2013-08-26 10:24:00,65.2,60.9,30.09,SSE,151,1.0,1.0,86,0.00,,,0.01,214,Wunderground v.1.15,2013-08-26 14:24:00,
2013-08-26 10:29:00,65.4,61.1,30.09,East,93,2.0,3.0,86,0.00,,,0.01,239,Wunderground v.1.15,2013-08-26 14:29:00,
2013-08-26 10:39:00,65.9,61.6,30.08,SE,126,2.0,2.0,86,0.00,,,0.01,244,Wunderground v.1.15,2013-08-26 14:39:00,
2013-08-26 10:49:00,66.3,61.3,30.08,ESE,121,2.0,4.0,84,0.00,,,0.01,111,Wunderground v.1.15,2013-08-26 14:49:00,
2013-08-26 10:54:00,66.3,62.0,30.08,SE,128,2.0,2.0,86,0.00,,,0.01,100,Wunderground v.1.15,2013-08-26 14:54:00,
2013-08-26 10:59:00,66.1,61.5,30.07,ESE,116,2.0,2.0,85,0.00,,,0.01,98,Wunderground v.1.15,2013-08-26 14:59:00,
2013-08-26 11:09:00,65.9,61.3,30.07,SE,145,1.0,4.0,85,0.00,,,0.01,162,Wunderground v.1.15,2013-08-26 15:09:00,
2013-08-26 11:14:00,66.0,61.7,30.07,ESE,117,1.0,2.0,86,0.00,,,0.01,200,Wunderground v.1.15,2013-08-26 15:14:00,
2013-08-26 11:19:00,66.1,61.8,30.07,East,93,2.0,2.0,86,0.00,,,0.01,250,Wunderground v.1.15,2013-08-26 15:19:00,
2013-08-26 11:24:00,66.9,62.9,30.07,East,101,2.0,2.0,87,0.00,,,0.01,313,Wunderground v.1.15,2013-08-26 15:24:00,
2013-08-26 11:29:00,67.6,62.6,30.07,East,83,2.0,2.0,84,0.00,,,0.01,221,Wunderground v.1.15,2013-08-26 15:29:00,
2013-08-26 11:39:00,68.8,64.1,30.06,South,171,2.0,3.0,85,0.00,,,0.01,329,Wunderground v.1.15,2013-08-26 15:39:00,
2013-08-26 11:49:00,69.0,63.3,30.05,SE,146,2.0,3.0,82,0.00,,,0.01,171,Wunderground v.1.15,2013-08-26 15:49:00,
2013-08-26 11:54:00,68.9,63.2,30.05,NE,39,2.0,2.0,82,0.00,,,0.01,206,Wunderground v.1.15,2013-08-26 15:54:00,
2013-08-26 12:04:00,69.9,64.8,30.05,ENE,59,1.0,1.0,84,0.00,,,0.01,497,Wunderground v.1.15,2013-08-26 16:04:00,
2013-08-26 12:09:00,69.9,64.5,30.05,ENE,57,1.0,2.0,83,0.00,,,0.01,429,Wunderground v.1.15,2013-08-26 16:09:00,
2013-08-26 12:14:00,71.7,66.3,30.05,SSE,159,1.0,1.0,83,0.00,,,0.01,722,Wunderground v.1.15,2013-08-26 16:14:00,
2013-08-26 12:24:00,72.3,65.1,30.05,WNW,300,2.0,2.0,78,0.00,,,0.01,540,Wunderground v.1.15,2013-08-26 16:24:00,
2013-08-26 12:29:00,72.3,66.1,30.04,East,84,1.0,3.0,81,0.00,,,0.01,459,Wunderground v.1.15,2013-08-26 16:29:00,
2013-08-26 12:34:00,72.0,65.1,30.04,NNE,22,2.0,2.0,79,0.00,,,0.01,343,Wunderground v.1.15,2013-08-26 16:34:00,
2013-08-26 12:39:00,72.0,65.1,30.04,NE,39,1.0,2.0,79,0.00,,,0.01,290,Wunderground v.1.15,2013-08-26 16:39:00,
2013-08-26 12:49:00,72.0,65.5,30.04,SE,140,2.0,2.0,80,0.00,,,0.01,336,Wunderground v.1.15,2013-08-26 16:49:00,
2013-08-26 12:54:00,72.0,66.2,30.03,ESE,115,1.0,1.0,82,0.00,,,0.01,199,Wunderground v.1.15,2013-08-26 16:54:00,
2013-08-26 12:59:00,72.1,65.6,30.03,SE,132,1.0,1.0,80,0.00,,,0.01,169,Wunderground v.1.15,2013-08-26 16:59:00,
2013-08-26 13:04:00,72.2,66.4,30.03,ESE,115,2.0,2.0,82,0.00,,,0.01,195,Wunderground v.1.15,2013-08-26 17:04:00,
2013-08-26 13:09:00,72.2,66.0,30.02,SW,218,1.0,2.0,81,0.00,,,0.01,193,Wunderground v.1.15,2013-08-26 17:09:00,
2013-08-26 13:14:00,72.2,66.0,30.02,East,88,1.0,1.0,81,0.00,,,0.01,248,Wunderground v.1.15,2013-08-26 17:14:00,
2013-08-26 13:19:00,72.3,66.5,30.02,SW,236,1.0,1.0,82,0.00,,,0.01,236,Wunderground v.1.15,2013-08-26 17:19:00,
2013-08-26 13:24:00,72.5,66.7,30.02,NE,45,0.0,0.0,82,0.00,,,0.01,234,Wunderground v.1.15,2013-08-26 17:24:00,
2013-08-26 13:34:00,72.8,65.5,30.02,ESE,105,1.0,1.0,78,0.00,,,0.01,269,Wunderground v.1.15,2013-08-26 17:34:00,
2013-08-26 13:39:00,72.8,65.9,30.02,SW,233,1.0,1.0,79,0.00,,,0.01,179,Wunderground v.1.15,2013-08-26 17:39:00,
2013-08-26 13:44:00,72.7,65.8,30.02,NW,315,1.0,1.0,79,0.00,,,0.01,148,Wunderground v.1.15,2013-08-26 17:44:00,
2013-08-26 13:49:00,72.6,66.1,30.01,SSE,153,1.0,3.0,80,0.00,,,0.01,193,Wunderground v.1.15,2013-08-26 17:49:00,
2013-08-26 13:54:00,72.4,65.9,30.00,SE,142,1.0,1.0,80,0.00,,,0.01,229,Wunderground v.1.15,2013-08-26 17:54:00,
2013-08-26 14:04:00,72.1,65.6,30.00,SW,225,1.0,1.0,80,0.00,,,0.01,121,Wunderground v.1.15,2013-08-26 18:04:00,
2013-08-26 14:09:00,71.6,65.1,30.00,NE,36,1.0,1.0,80,0.00,,,0.01,171,Wunderground v.1.15,2013-08-26 18:09:00,
2013-08-26 14:14:00,71.3,65.2,30.00,ESE,107,2.0,4.0,81,0.00,,,0.01,174,Wunderground v.1.15,2013-08-26 18:14:00,
2013-08-26 14:19:00,71.0,65.2,30.00,ESE,111,2.0,4.0,82,0.00,,,0.01,221,Wunderground v.1.15,2013-08-26 18:19:00,
2013-08-26 14:24:00,71.1,65.7,30.00,ESE,106,2.0,4.0,83,0.00,,,0.01,253,Wunderground v.1.15,2013-08-26 18:24:00,
2013-08-26 14:34:00,70.9,65.1,30.00,NNE,26,1.0,1.0,82,0.00,,,0.01,81,Wunderground v.1.15,2013-08-26 18:34:00,
2013-08-26 14:39:00,70.6,65.2,30.00,SE,140,2.0,3.0,83,0.00,,,0.01,74,Wunderground v.1.15,2013-08-26 18:39:00,
2013-08-26 14:44:00,70.1,65.4,29.99,ENE,76,2.0,2.0,85,0.00,,,0.01,60,Wunderground v.1.15,2013-08-26 18:44:00,
2013-08-26 14:49:00,69.6,65.6,29.99,ESE,103,1.0,2.0,87,0.00,,,0.02,70,Wunderground v.1.15,2013-08-26 18:49:00,
2013-08-26 14:54:00,69.3,65.6,29.99,East,84,0.0,0.0,88,0.00,,,0.02,102,Wunderground v.1.15,2013-08-26 18:54:00,
2013-08-26 14:59:00,69.0,65.6,29.98,East,86,1.0,1.0,89,0.00,,,0.02,142,Wunderground v.1.15,2013-08-26 18:59:00,
2013-08-26 15:04:00,68.8,65.7,29.98,NW,319,1.0,4.0,90,0.00,,,0.02,178,Wunderground v.1.15,2013-08-26 19:04:00,
2013-08-26 15:09:00,68.6,65.9,29.98,SE,134,1.0,4.0,91,0.00,,,0.02,243,Wunderground v.1.15,2013-08-26 19:09:00,
2013-08-26 15:19:00,68.7,66.6,29.98,ENE,57,1.0,2.0,93,0.00,,,0.02,225,Wunderground v.1.15,2013-08-26 19:19:00,
2013-08-26 15:24:00,68.7,66.6,29.98,SE,132,2.0,4.0,93,0.00,,,0.02,206,Wunderground v.1.15,2013-08-26 19:24:00,
2013-08-26 15:29:00,68.7,66.6,29.98,South,180,1.0,4.0,93,0.00,,,0.02,285,Wunderground v.1.15,2013-08-26 19:29:00,
2013-08-26 15:34:00,68.8,66.7,29.98,ENE,78,2.0,2.0,93,0.00,,,0.02,445,Wunderground v.1.15,2013-08-26 19:34:00,
2013-08-26 15:39:00,69.7,67.6,29.98,ENE,67,1.0,2.0,93,0.00,,,0.02,461,Wunderground v.1.15,2013-08-26 19:39:00,
2013-08-26 15:44:00,69.9,67.2,29.98,SSE,156,1.0,1.0,91,0.00,,,0.02,313,Wunderground v.1.15,2013-08-26 19:44:00,
2013-08-26 15:49:00,70.0,66.9,29.98,SSW,213,1.0,1.0,90,0.00,,,0.02,287,Wunderground v.1.15,2013-08-26 19:49:00,
2013-08-26 15:59:00,70.4,67.0,29.97,NE,39,1.0,1.0,89,0.00,,,0.02,200,Wunderground v.1.15,2013-08-26 19:59:00,
2013-08-26 16:09:00,70.5,67.1,29.97,SSW,192,0.0,1.0,89,0.00,,,0.02,135,Wunderground v.1.15,2013-08-26 20:09:00,
2013-08-26 16:14:00,70.5,66.8,29.97,North,360,1.0,1.0,88,0.00,,,0.02,91,Wunderground v.1.15,2013-08-26 20:14:00,
2013-08-26 16:19:00,70.5,67.1,29.97,North,360,0.0,1.0,89,0.00,,,0.02,77,Wunderground v.1.15,2013-08-26 20:19:00,
2013-08-26 16:24:00,70.3,66.9,29.98,North,9,0.0,1.0,89,0.00,,,0.02,49,Wunderground v.1.15,2013-08-26 20:24:00,
2013-08-26 16:29:00,70.2,67.1,29.97,North,5,0.0,1.0,90,0.00,,,0.02,53,Wunderground v.1.15,2013-08-26 20:29:00,
2013-08-26 16:34:00,70.0,66.9,29.97,North,5,0.0,0.0,90,0.00,,,0.02,49,Wunderground v.1.15,2013-08-26 20:34:00,
2013-08-26 16:44:00,69.9,67.2,29.97,North,5,0.0,0.0,91,0.00,,,0.02,39,Wunderground v.1.15,2013-08-26 20:44:00,
2013-08-26 16:49:00,69.7,67.0,29.96,North,5,0.0,0.0,91,0.00,,,0.02,44,Wunderground v.1.15,2013-08-26 20:49:00,
2013-08-26 16:59:00,69.4,67.0,29.96,North,5,0.0,0.0,92,0.00,,,0.02,46,Wunderground v.1.15,2013-08-26 20:59:00,
2013-08-26 17:04:00,69.2,66.8,29.96,North,5,0.0,1.0,92,0.00,,,0.02,51,Wunderground v.1.15,2013-08-26 21:04:00,
2013-08-26 17:09:00,69.0,66.6,29.96,North,5,0.0,1.0,92,0.00,,,0.02,53,Wunderground v.1.15,2013-08-26 21:09:00,
2013-08-26 17:19:00,68.8,66.7,29.96,North,5,0.0,1.0,93,0.00,,,0.02,47,Wunderground v.1.15,2013-08-26 21:19:00,
2013-08-26 17:29:00,68.6,66.5,29.96,North,10,0.0,0.0,93,0.00,,,0.03,39,Wunderground v.1.15,2013-08-26 21:29:00,
2013-08-26 17:34:00,68.5,66.4,29.96,North,10,0.0,0.0,93,0.00,,,0.03,30,Wunderground v.1.15,2013-08-26 21:34:00,
2013-08-26 17:39:00,68.4,66.6,29.96,NNE,13,0.0,0.0,94,0.00,,,0.03,26,Wunderground v.1.15,2013-08-26 21:39:00,
2013-08-26 17:49:00,68.2,66.4,29.96,NNE,13,0.0,0.0,94,0.00,,,0.03,26,Wunderground v.1.15,2013-08-26 21:49:00,
2013-08-26 17:54:00,68.1,66.3,29.96,NNE,13,0.0,0.0,94,0.00,,,0.03,23,Wunderground v.1.15,2013-08-26 21:54:00,
2013-08-26 17:59:00,68.1,66.6,29.96,NNE,13,0.0,0.0,95,0.00,,,0.03,25,Wunderground v.1.15,2013-08-26 21:59:00,
2013-08-26 18:09:00,67.9,66.4,29.95,NNE,13,0.0,0.0,95,0.00,,,0.03,23,Wunderground v.1.15,2013-08-26 22:09:00,
2013-08-26 18:19:00,67.8,66.3,29.95,NNE,13,0.0,0.0,95,0.00,,,0.03,23,Wunderground v.1.15,2013-08-26 22:19:00,
2013-08-26 18:29:00,67.7,66.2,29.94,NNE,13,0.0,0.0,95,0.00,,,0.03,28,Wunderground v.1.15,2013-08-26 22:29:00,
2013-08-26 18:34:00,67.7,66.5,29.94,NNE,13,0.0,0.0,96,0.00,,,0.03,18,Wunderground v.1.15,2013-08-26 22:34:00,
2013-08-26 18:44:00,67.6,66.4,29.95,NNE,13,0.0,0.0,96,0.00,,,0.03,7,Wunderground v.1.15,2013-08-26 22:44:00,
2013-08-26 18:54:00,67.5,66.3,29.95,NNE,13,0.0,0.0,96,0.00,,,0.03,5,Wunderground v.1.15,2013-08-26 22:54:00,
2013-08-26 18:59:00,67.5,66.3,29.95,NNE,13,0.0,0.0,96,0.00,,,0.03,5,Wunderground v.1.15,2013-08-26 22:59:00,
2013-08-26 19:04:00,67.5,66.3,29.95,NNE,13,0.0,0.0,96,0.00,,,0.04,5,Wunderground v.1.15,2013-08-26 23:04:00,
2013-08-26 19:09:00,67.4,66.2,29.95,NNE,13,0.0,0.0,96,0.00,,,0.04,5,Wunderground v.1.15,2013-08-26 23:09:00,
2013-08-26 19:19:00,67.4,66.2,29.95,NNE,13,0.0,0.0,96,0.00,,,0.04,5,Wunderground v.1.15,2013-08-26 23:19:00,
2013-08-26 19:24:00,67.3,66.1,29.95,NNE,13,0.0,0.0,96,0.00,,,0.04,0,Wunderground v.1.15,2013-08-26 23:24:00,
2013-08-26 19:29:00,67.3,66.4,29.95,NNE,13,0.0,0.0,97,0.00,,,0.04,0,Wunderground v.1.15,2013-08-26 23:29:00,
2013-08-26 19:39:00,67.3,66.4,29.94,NNE,13,0.0,0.0,97,0.00,,,0.04,0,Wunderground v.1.15,2013-08-26 23:39:00,
2013-08-26 19:49:00,67.2,66.3,29.94,NNE,13,0.0,1.0,97,0.00,,,0.04,0,Wunderground v.1.15,2013-08-26 23:49:00,
2013-08-26 19:59:00,67.2,66.3,29.94,NNE,13,0.0,0.0,97,0.00,,,0.04,0,Wunderground v.1.15,2013-08-26 23:59:00,
2013-08-26 20:09:00,67.1,66.2,29.94,NNE,13,0.0,0.0,97,0.00,,,0.04,0,Wunderground v.1.15,2013-08-27 00:09:00,
2013-08-26 20:14:00,67.1,66.2,29.94,NNE,13,0.0,0.0,97,0.00,,,0.04,0,Wunderground v.1.15,2013-08-27 00:14:00,
2013-08-26 20:19:00,67.1,66.2,29.94,NNE,13,0.0,0.0,97,0.00,,,0.04,0,Wunderground v.1.15,2013-08-27 00:19:00,
2013-08-26 20:29:00,67.2,66.6,29.94,NNE,13,0.0,0.0,98,0.24,,,0.09,0,Wunderground v.1.15,2013-08-27 00:29:00,
2013-08-26 20:39:00,67.2,66.6,29.94,NNE,13,0.0,0.0,98,0.33,,,0.13,0,Wunderground v.1.15,2013-08-27 00:39:00,
2013-08-26 20:49:00,67.2,66.6,29.94,NNE,13,0.0,0.0,98,0.19,,,0.21,0,Wunderground v.1.15,2013-08-27 00:49:00,
2013-08-26 20:54:00,67.2,66.6,29.94,NNE,13,0.0,0.0,98,0.14,,,0.22,0,Wunderground v.1.15,2013-08-27 00:54:00,
2013-08-26 20:59:00,67.2,66.6,29.94,SW,227,0.0,3.0,98,0.07,,,0.22,0,Wunderground v.1.15,2013-08-27 00:59:00,
2013-08-26 21:09:00,67.2,66.6,29.94,SW,227,0.0,0.0,98,0.04,,,0.23,0,Wunderground v.1.15,2013-08-27 01:09:00,
2013-08-26 21:14:00,67.2,66.6,29.94,SW,227,0.0,0.0,98,0.04,,,0.23,0,Wunderground v.1.15,2013-08-27 01:14:00,
2013-08-26 21:24:00,67.2,66.6,29.94,SW,227,0.0,0.0,98,0.00,,,0.23,0,Wunderground v.1.15,2013-08-27 01:24:00,
2013-08-26 21:29:00,67.2,66.6,29.94,SW,227,0.0,0.0,98,0.00,,,0.23,0,Wunderground v.1.15,2013-08-27 01:29:00,
2013-08-26 21:39:00,67.2,66.6,29.94,WSW,256,0.0,0.0,98,0.00,,,0.24,0,Wunderground v.1.15,2013-08-27 01:39:00,
2013-08-26 21:44:00,67.1,66.5,29.93,WSW,255,0.0,0.0,98,0.06,,,0.25,0,Wunderground v.1.15,2013-08-27 01:44:00,
2013-08-26 21:54:00,67.1,66.5,29.93,WSW,255,0.0,0.0,98,0.10,,,0.26,0,Wunderground v.1.15,2013-08-27 01:54:00,
2013-08-26 21:59:00,67.0,66.4,29.93,WSW,248,0.0,1.0,98,0.10,,,0.27,0,Wunderground v.1.15,2013-08-27 01:59:00,
2013-08-26 22:04:00,67.0,66.4,29.93,SE,130,0.0,2.0,98,0.06,,,0.27,0,Wunderground v.1.15,2013-08-27 02:04:00,
2013-08-26 22:14:00,67.0,66.7,29.93,ESE,103,0.0,0.0,99,0.05,,,0.28,0,Wunderground v.1.15,2013-08-27 02:14:00,
2013-08-26 22:24:00,67.0,66.7,29.92,ESE,104,0.0,0.0,99,0.05,,,0.29,0,Wunderground v.1.15,2013-08-27 02:24:00,
2013-08-26 22:29:00,67.0,66.7,29.92,ESE,104,1.0,1.0,99,0.05,,,0.29,0,Wunderground v.1.15,2013-08-27 02:29:00,
2013-08-26 22:34:00,67.0,66.7,29.92,East,101,1.0,1.0,99,0.04,,,0.29,0,Wunderground v.1.15,2013-08-27 02:34:00,
2013-08-26 22:39:00,67.0,66.7,29.92,SE,126,1.0,2.0,99,0.00,,,0.29,0,Wunderground v.1.15,2013-08-27 02:39:00,
2013-08-26 22:44:00,67.1,66.8,29.91,SE,128,1.0,1.0,99,0.00,,,0.29,0,Wunderground v.1.15,2013-08-27 02:44:00,
2013-08-26 22:49:00,67.1,66.8,29.91,SE,142,1.0,1.0,99,0.00,,,0.29,0,Wunderground v.1.15,2013-08-27 02:49:00,
2013-08-26 22:54:00,67.1,66.8,29.91,SE,142,0.0,0.0,99,0.00,,,0.30,0,Wunderground v.1.15,2013-08-27 02:54:00,
2013-08-26 22:59:00,67.1,66.8,29.91,SE,138,0.0,0.0,99,0.00,,,0.30,0,Wunderground v.1.15,2013-08-27 02:59:00,
2013-08-26 23:09:00,67.1,66.8,29.91,SE,138,0.0,1.0,99,0.00,,,0.30,0,Wunderground v.1.15,2013-08-27 03:09:00,
2013-08-26 23:14:00,67.0,66.7,29.90,SE,138,0.0,0.0,99,0.00,,,0.30,0,Wunderground v.1.15,2013-08-27 03:14:00,
2013-08-26 23:19:00,67.0,66.7,29.90,SE,138,0.0,0.0,99,0.00,,,0.30,0,Wunderground v.1.15,2013-08-27 03:19:00,
2013-08-26 23:24:00,67.0,66.7,29.91,SE,138,0.0,0.0,99,0.00,,,0.30,0,Wunderground v.1.15,2013-08-27 03:24:00,
2013-08-26 23:29:00,66.9,66.6,29.91,SE,138,0.0,1.0,99,0.00,,,0.30,0,Wunderground v.1.15,2013-08-27 03:29:00,
2013-08-26 23:39:00,66.9,66.6,29.91,SSE,148,0.0,0.0,99,0.00,,,0.31,0,Wunderground v.1.15,2013-08-27 03:39:00,
2013-08-26 23:49:00,66.9,66.6,29.90,East,88,1.0,3.0,99,0.75,,,0.41,0,Wunderground v.1.15,2013-08-27 03:49:00,
2013-08-26 23:59:00,66.6,66.3,29.90,NE,55,1.0,4.0,99,0.12,,,0.43,0,Wunderground v.1.15,2013-08-27 03:59:00,